{"data":{"norad_id":62440,"intl_designator":"2024-251J","name":"STARLINK-32689","alt_names":[],"object_type":"PAYLOAD","status":"ACTIVE","operator":null,"country":"US","launch_date":"2024-12-29","launch_site_code":"AFWTR","launch_vehicle":null,"mission":null,"orbit_class":"UNKNOWN","rcs_meters":null,"size_class":null,"mass_kg":null,"dimensions":null,"purposes":["comms"],"wikipedia_slug":null,"has_3d_model":false,"image_url":null,"decayed_at":null,"tle_current":{"epoch":"2026-05-24T20:24:07.535808Z","epoch_age_seconds":102243,"freshness":"FRESH","line1":"1 62440U 24251J   26144.85008722  .00014926  00000+0  51491-3 0  9993","line2":"2 62440  53.1596 341.2098 0000882  88.8891 271.2211 15.30209099 79611","mean_motion":15.30209099,"eccentricity":8.82e-5,"inclination_deg":53.1596,"raan_deg":341.2098,"arg_perigee_deg":88.8891,"mean_anomaly_deg":271.2211,"bstar":0.00051491,"rev_number":7961,"period_min":94.104786132892,"perigee_km":474.58343832373,"apogee_km":475.79236483637,"semimajor_km":6853.3249015801,"source":"CELESTRAK","updated_at":"2026-05-25T13:38:19.658650Z"}}}